Station OOUH1 - 1612340 - Honolulu, HI Image indicating link to RSS feed of recent meteorological observations for station OOUH1


Conditions at OOUH1 as of
(4:48 am HAST)
1448 GMT on 07/23/2024:
     

Click on the graph icon in the table below to see a time series plot of the last five days of that observation.

5-day plot - Wind Speed Wind Speed (WSPD): 0.0 kts
5-day plot - Wind Gust Wind Gust (GST): 4.1 kts
5-day plot - Atmospheric Pressure Atmospheric Pressure (PRES):30.00 in
5-day plot - Air Temperature Air Temperature (ATMP): 77.2 °F
5-day plot - Water Temperature Water Temperature (WTMP): 79.5 °F
5-day plot - Wind Speed at 10 Meters Wind Speed at 10 meters (WSPD10M): 1.9 kts
5-day plot - Wind Speed at 20 Meters Wind Speed at 20 meters (WSPD20M): 1.9 kts
5-day plot -  Wind Speed, Wind Gust and Atmospheric Pressure Combined plot of Wind Speed, Gust, and Air Pressure
NOS Water Level Observation Network Water Level
Previous observations
TIME
(HAST)
5-day plot - Wind Direction
WDIR
 
5-day plot - Wind Speed
WSPD
kts
5-day plot - Wind Gust
GST
kts
5-day plot - Wave Height
WVHT
ft
5-day plot - Dominant Wave Period
DPD
sec
5-day plot - Average Wave Period
APD
sec
5-day plot - Mean Wave Direction
MWD
 
5-day plot - Atmospheric Pressure
PRES
in
5-day plot - Pressure Tendency
PTDY
in
5-day plot - Air Temperature
ATMP
°F
5-day plot - Water Temperature
WTMP
°F
5-day plot - Dew Point
DEWP
°F
5-day plot - Salinity
SAL
psu
5-day plot - Visibility
VIS
nmi
5-day plot - Tide (above MLLW)
TIDE
ft
2024-07-23 04:42 am NE 1.9 4.1----30.00- 77.2 79.5----
2024-07-23 04:36 amESE 2.9 6.0----30.00- 77.4 79.5----
2024-07-23 04:30 am E 2.9 7.0----30.01- 77.7 79.5----
2024-07-23 04:24 am S 1.0 4.1----30.01- 77.9 79.5----
2024-07-23 04:18 am E 1.0 2.9----30.01- 77.9 79.5----
2024-07-23 04:12 am NE 2.9 8.0----30.01- 77.9 79.5----
2024-07-23 04:06 amNNE 1.9 4.1----30.01- 77.7 79.5----
2024-07-23 04:00 am E 4.1 8.9----30.01-0.03 77.7 79.5----
2024-07-23 03:54 am SE 1.0 5.1----30.01- 77.7 79.7----
2024-07-23 03:48 amESE 2.9 6.0----30.01- 77.9 79.7----
2024-07-23 03:42 am NE 4.1 11.1----30.00- 77.7 79.7----
2024-07-23 03:36 am SE 2.9 6.0----30.01- 77.9 79.7----
2024-07-23 03:30 am- 0.0 2.9----30.01- 77.7 79.7----
2024-07-23 03:24 am NE 1.9 6.0----30.01- 77.5 79.7----
2024-07-23 03:18 amENE 1.9 5.1----30.01- 77.7 79.7----
2024-07-23 03:12 amENE 2.9 6.0----30.01- 77.9 79.7----
2024-07-23 03:06 am E 4.1 8.0----30.01- 77.9 79.7----
2024-07-23 03:00 amENE 1.0 6.0----30.01-0.04 77.7 79.7----
2024-07-23 02:54 am N 1.9 6.0----30.01- 77.7 79.7----
2024-07-23 02:48 amENE 1.9 8.0----30.01- 77.7 79.7----
2024-07-23 02:42 amNNE 1.9 4.1----30.01- 77.5 79.7----
2024-07-23 02:36 amENE 2.9 5.1----30.02- 77.5 79.7----
2024-07-23 02:30 amNNE 2.9 8.9----30.02- 77.5 79.7----
2024-07-23 02:24 am NE 5.1 8.9----30.02- 77.5 79.7----
2024-07-23 02:18 am E 2.9 8.0----30.02- 77.4 79.7----
2024-07-23 02:12 am NE 4.1 6.0----30.03- 77.4 79.7----
2024-07-23 02:06 amENE 4.1 5.1----30.03- 77.0 79.7----
2024-07-23 02:00 amENE 1.0 4.1----30.03-0.03 77.2 79.7----
2024-07-23 01:54 am NE 2.9 4.1----30.03- 77.0 79.7----
2024-07-23 01:48 am- 0.0 1.9----30.03- 77.4 79.7----
2024-07-23 01:42 am- 0.0 5.1----30.03- 77.2 79.7----
2024-07-23 01:36 am- 0.0 6.0----30.04- 77.2 79.7----
2024-07-23 01:30 amENE 6.0 8.9----30.04- 77.0 79.7----
2024-07-23 01:24 am NE 4.1 11.1----30.04- 77.4 79.7----
2024-07-23 01:18 amENE 5.1 8.9----30.04- 77.2 79.7----
2024-07-23 01:12 am NE 5.1 9.9----30.04- 77.4 79.7----
2024-07-23 01:06 amENE 1.9 8.0----30.04- 77.9 79.7----
2024-07-23 01:00 am N 5.1 6.0----30.04-0.02 77.9 79.7----
2024-07-23 12:54 am NW 1.9 5.1----30.04- 78.1 79.7----
2024-07-23 12:48 am NE 2.9 5.1----30.04- 78.1 79.7----
2024-07-23 12:42 am E 4.1 7.0----30.05- 78.3 79.7----
2024-07-23 12:36 am E 2.9 8.0----30.05- 78.3 79.7----
2024-07-23 12:30 amENE 2.9 9.9----30.05- 78.1 79.7----
2024-07-23 12:24 amENE 2.9 7.0----30.05- 78.1 79.7----
2024-07-23 12:18 am NE 4.1 7.0----30.05- 78.1 79.7----
2024-07-23 12:12 am E 1.0 7.0----30.05- 78.1 79.7----
2024-07-23 12:06 amESE 2.9 6.0----30.05- 78.1 79.7----
2024-07-23 12:00 am NE 5.1 9.9----30.05+0.00 78.1 79.7----
2024-07-22 11:54 pmESE 5.1 11.1----30.05- 78.3 79.7----
2024-07-22 11:48 pm E 4.1 8.0----30.05- 78.4 79.9----
2024-07-22 11:42 pmENE 2.9 8.9----30.05- 78.3 79.9----
2024-07-22 11:36 pm E 5.1 11.1----30.05- 78.4 79.9----
2024-07-22 11:30 pm E 1.9 8.0----30.05- 78.4 79.9----
2024-07-22 11:24 pmENE 5.1 13.0----30.06- 78.6 79.9----
2024-07-22 11:18 pm E 4.1 8.0----30.06- 78.8 79.9----
2024-07-22 11:12 pmENE 5.1 8.9----30.06- 78.8 79.9----
2024-07-22 11:06 pm NE 6.0 11.1----30.06- 78.6 79.9----
2024-07-22 11:00 pmENE 5.1 8.9----30.06+0.01 78.6 79.9----
2024-07-22 10:54 pmENE 6.0 8.0----30.06- 78.8 79.9----
2024-07-22 10:48 pm E 6.0 12.0----30.06- 78.6 79.9----
2024-07-22 10:42 pm NE 1.0 6.0----30.06- 78.6 79.9----
2024-07-22 10:36 pmENE 4.1 8.9----30.06- 78.6 79.9----
2024-07-22 10:30 pm E 4.1 8.0----30.06- 78.8 79.9----
2024-07-22 10:24 pmENE 8.9 15.0----30.06- 78.6 79.9----
2024-07-22 10:18 pmENE 2.9 9.9----30.06- 78.8 79.9----
2024-07-22 10:12 pmENE 5.1 8.9----30.06- 79.0 79.9----
2024-07-22 10:06 pmESE 4.1 7.0----30.06- 78.8 79.9----
2024-07-22 10:00 pm NE 2.9 6.0----30.06+0.03 78.6 79.9----
2024-07-22 09:54 pm NE 2.9 8.0----30.06- 78.6 79.9----
2024-07-22 09:48 pmENE 5.1 8.0----30.06- 78.6 79.9----
2024-07-22 09:42 pm E 2.9 13.0----30.06- 78.6 79.9----
2024-07-22 09:36 pmENE 7.0 9.9----30.06- 78.6 79.9----
2024-07-22 09:30 pm E 1.9 9.9----30.05- 78.4 79.9----
2024-07-22 09:24 pm E 4.1 8.9----30.05- 78.6 79.9----
2024-07-22 09:18 pm E 4.1 9.9----30.05- 78.6 79.9----
2024-07-22 09:12 pmENE 5.1 12.0----30.05- 78.4 79.9----
2024-07-22 09:06 pm E 6.0 13.0----30.05- 78.6 79.9----
2024-07-22 09:00 pmESE 5.1 8.9----30.05+0.03 78.3 79.9----
2024-07-22 08:54 pmENE 6.0 12.0----30.05- 78.4 79.9----
2024-07-22 08:48 pm E 5.1 13.0----30.04- 78.4 79.9----
2024-07-22 08:42 pm E 8.9 13.0----30.04- 78.6 79.9----
2024-07-22 08:36 pmENE 7.0 12.0----30.05- 78.3 79.9----
2024-07-22 08:30 pmENE 2.9 7.0----30.04- 78.4 79.9----
2024-07-22 08:24 pmENE 5.1 8.0----30.04- 78.3 79.9----
2024-07-22 08:18 pm NE 5.1 12.0----30.04- 78.4 79.9----
2024-07-22 08:12 pmENE 7.0 9.9----30.04- 78.3 79.9----
2024-07-22 08:06 pmNNE 2.9 6.0----30.04- 78.6 79.9----
2024-07-22 08:00 pm NE 2.9 6.0----30.04+0.03 79.0 79.9----
2024-07-22 07:54 pm NE 2.9 5.1----30.04- 78.6 79.9----
2024-07-22 07:48 pmNNE 2.9 6.0----30.03- 79.0 79.9----
2024-07-22 07:42 pm NE 5.1 8.0----30.04- 78.8 79.9----
2024-07-22 07:36 pm NE 4.1 9.9----30.04- 79.0 79.9----
2024-07-22 07:30 pm NE 7.0 9.9----30.04- 79.0 79.9----
2024-07-22 07:24 pm NE 7.0 12.0----30.04- 79.2 79.9----
2024-07-22 07:18 pmENE 4.1 6.0----30.03- 79.3 79.9----
2024-07-22 07:12 pm NE 4.1 5.1----30.03- 79.3 79.9----
2024-07-22 07:06 pmENE 2.9 8.0----30.03- 79.3 79.9----
2024-07-22 07:00 pm E 5.1 8.9----30.03+0.01 79.3 79.9----
2024-07-22 06:54 pmNNE 2.9 12.0----30.03- 79.7 79.9----
2024-07-22 06:48 pm E 7.0 12.0----30.02- 79.7 79.9----
2024-07-22 06:42 pm E 6.0 11.1----30.02- 79.9 79.9----
2024-07-22 06:36 pm E 2.9 7.0----30.02- 79.9 79.9----
2024-07-22 06:30 pm E 4.1 11.1----30.02- 79.9 79.9----
2024-07-22 06:24 pm E 5.1 11.1----30.02- 80.1 79.9----
2024-07-22 06:18 pm NE 5.1 8.9----30.02- 79.9 79.9----
2024-07-22 06:12 pmNNE 4.1 8.9----30.02- 80.6 79.9----
2024-07-22 06:06 pmENE 8.0 14.0----30.02- 80.2 79.9----
2024-07-22 06:00 pm N 7.0 11.1----30.01-0.01 80.4 79.9----
2024-07-22 05:54 pm NE 6.0 14.0----30.01- 80.4 79.9----
2024-07-22 05:48 pmENE 7.0 11.1----30.02- 80.4 79.9----
2024-07-22 05:42 pmENE 7.0 13.0----30.02- 80.6 80.1----
2024-07-22 05:36 pm NE 4.1 15.0----30.01- 80.8 80.1----
2024-07-22 05:30 pmENE 8.0 15.0----30.02- 80.8 80.1----
2024-07-22 05:24 pmENE 7.0 11.1----30.01- 81.1 80.1----
2024-07-22 05:18 pmNNE 4.1 8.9----30.01- 82.2 80.1----
2024-07-22 05:12 pm N 1.9 9.9----30.01- 82.2 80.1----
2024-07-22 05:06 pm NE 1.9 9.9----30.01- 82.0 80.1----
2024-07-22 05:00 pmNNE 2.9 11.1----30.01-0.03 81.7 80.1----
2024-07-22 04:54 pmENE 5.1 11.1----30.01- 82.2 80.1----
2024-07-22 04:48 pmENE 8.0 15.0----30.01- 81.3 80.1----
2024-07-22 04:42 pm NE 7.0 12.0----30.01- 82.2 80.1----
2024-07-22 04:36 pmENE 7.0 9.9----30.02- 81.9 79.9----
2024-07-22 04:30 pm E 5.1 14.0----30.02- 82.4 79.9----
2024-07-22 04:24 pm NE 8.0 14.0----30.02- 82.4 80.1----
2024-07-22 04:18 pm NE 5.1 9.9----30.02- 82.6 80.1----
2024-07-22 04:12 pmENE 8.9 12.0----30.02- 81.9 80.1----
2024-07-22 04:06 pmENE 8.9 12.0----30.02- 82.2 80.1----
2024-07-22 04:00 pm NE 6.0 15.0----30.02-0.05 82.2 80.1----
2024-07-22 03:54 pm E 5.1 12.0----30.02- 82.8 80.1----
2024-07-22 03:48 pm NE 6.0 12.0----30.02- 82.4 80.1----
2024-07-22 03:42 pm E 5.1 13.0----30.02- 82.9 80.1----
2024-07-22 03:36 pmENE 6.0 13.0----30.02- 82.4 80.1----
2024-07-22 03:30 pm E 6.0 15.0----30.02- 82.8 80.1----
2024-07-22 03:24 pmENE 7.0 14.0----30.02- 82.0 80.1----
2024-07-22 03:18 pm NE 7.0 14.0----30.02- 82.6 80.1----
2024-07-22 03:12 pmENE 5.1 12.0----30.03- 82.9 80.1----
2024-07-22 03:06 pmENE 5.1 11.1----30.03- 83.1 80.1----
2024-07-22 03:00 pm NE 7.0 13.0----30.03-0.05 82.9 80.1----
2024-07-22 02:54 pmENE 4.1 13.0----30.03- 83.3 80.1----
2024-07-22 02:48 pmENE 8.0 15.0----30.03- 83.3 80.1----
2024-07-22 02:42 pmENE 7.0 15.9----30.03- 82.6 80.1----
2024-07-22 02:36 pmENE 7.0 14.0----30.03- 83.1 80.1----
2024-07-22 02:30 pm E 5.1 12.0----30.04- 84.0 80.1----
2024-07-22 02:24 pmENE 5.1 13.0----30.04- 83.7 80.1----
2024-07-22 02:18 pm E 5.1 12.0----30.04- 83.7 80.1----
2024-07-22 02:12 pmENE 6.0 12.0----30.04- 83.5 80.1----
2024-07-22 02:06 pm E 4.1 12.0----30.04- 84.2 80.1----
2024-07-22 02:00 pm NE 5.1 13.0----30.04-0.05 82.9 79.9----
2024-07-22 01:54 pmNNE 4.1 8.9----30.05- 83.3 79.9----
2024-07-22 01:48 pm SE 2.9 9.9----30.05-- 79.9----
2024-07-22 01:42 pmENE 1.9 8.0----30.05-- 79.9----
2024-07-22 01:36 pmENE 7.0 11.1----30.05-- 79.9----
2024-07-22 01:30 pm NE 5.1 14.0----30.06-- 79.9----
2024-07-22 01:24 pmENE 5.1 13.0----30.06-- 79.9----
2024-07-22 01:18 pm N 4.1 15.0----30.06- 83.3 79.9----
2024-07-22 01:12 pmESE 4.1 12.0----30.06- 83.5 79.9----
2024-07-22 01:06 pmESE 6.0 14.0----30.06- 83.3 79.9----
2024-07-22 01:00 pm E 6.0 12.0----30.06-0.04 82.8 79.9----
2024-07-22 12:54 pm E 6.0 12.0----30.06- 82.9 79.9----
2024-07-22 12:48 pm E 6.0 9.9----30.06- 83.1 79.9----
2024-07-22 12:42 pm E 5.1 17.1----30.07- 82.8 79.9----
2024-07-22 12:36 pmESE 6.0 12.0----30.07- 82.9 79.9----
2024-07-22 12:30 pm E 5.1 13.0----30.07- 83.8 79.9----
2024-07-22 12:24 pm E 5.1 8.9----30.07- 83.1 79.9----
2024-07-22 12:18 pmESE 6.0 11.1----30.07- 83.3 79.9----
2024-07-22 12:12 pmNNE 5.1 14.0----30.07- 83.8 79.7----
2024-07-22 12:06 pm E 5.1 11.1----30.08- 83.8 79.7----
2024-07-22 12:00 pmENE 5.1 9.9----30.08-0.03 83.1 79.7----
2024-07-22 11:54 am E 6.0 9.9----30.08- 82.4 79.7----
2024-07-22 11:48 amENE 1.9 12.0----30.08- 82.8 79.7----
2024-07-22 11:42 amENE 6.0 12.0----30.09- 82.2 79.7----
2024-07-22 11:36 am E 8.0 13.0----30.09- 82.4 79.7----
2024-07-22 11:30 am-------30.09-- 79.7----
2024-07-22 11:24 am-------30.09-- 79.7----
2024-07-22 11:18 am E 6.0 12.0----30.09- 82.2 79.7----
2024-07-22 11:12 am E 7.0 13.0----30.09- 82.8 79.7----
2024-07-22 11:06 am E 7.0 14.0----30.10- 82.4 79.7----
2024-07-22 11:00 amENE 6.0 12.0----30.10+0.00- 79.7----
2024-07-22 10:54 amESE 6.0 12.0----30.10-- 79.7----
2024-07-22 10:48 amESE 7.0 13.0----30.10- 81.9 79.7----
2024-07-22 10:42 amENE 6.0 9.9----30.10- 82.0 79.7----
2024-07-22 10:36 amENE 5.1 14.0----30.10- 82.2 79.7----
2024-07-22 10:30 amENE 6.0 9.9----30.10- 81.9 79.7----
2024-07-22 10:24 am E 5.1 14.0----30.10- 82.2 79.7----
2024-07-22 10:18 am E 7.0 14.0----30.10- 81.5 79.7----
2024-07-22 10:12 amENE 7.0 15.9----30.10- 81.1 79.7----
2024-07-22 10:06 am NE 9.9 14.0----30.11- 80.6 79.7----
2024-07-22 10:00 amENE 4.1 9.9----30.10+0.01 81.5 79.7----
2024-07-22 09:54 am E 7.0 12.0----30.11- 81.0 79.7----
2024-07-22 09:48 am E 5.1 11.1----30.10-- 79.7----
2024-07-22 09:42 amESE 6.0 12.0----30.10-- 79.5----
2024-07-22 09:36 am NE 2.9 7.0----30.11-- 79.5----
2024-07-22 09:30 am NE 4.1 9.9----30.11- 81.0 79.5----
2024-07-22 09:24 amESE 5.1 9.9----30.11- 81.3 79.5----
2024-07-22 09:18 amENE 4.1 8.9----30.11- 80.6 79.5----
2024-07-22 09:12 amENE 6.0 11.1----30.11- 80.8 79.5----
2024-07-22 09:06 amENE 5.1 12.0----30.11- 81.1 79.5----
2024-07-22 09:00 amENE 2.9 7.0----30.11+0.03 81.0 79.5----
2024-07-22 08:54 amENE 5.1 12.0----30.11- 80.1 79.5----
2024-07-22 08:48 am NE 5.1 8.9----30.11- 80.4 79.5----
2024-07-22 08:42 am NE 1.0 6.0----30.10- 80.6 79.5----
2024-07-22 08:36 amESE 4.1 8.0----30.11- 80.2 79.5----
2024-07-22 08:30 amESE 6.0 9.9----30.11- 80.1 79.5----
2024-07-22 08:24 am NE 2.9 6.0----30.11- 80.8 79.5----
2024-07-22 08:18 am NE 2.9 9.9----30.11- 80.1 79.5----
2024-07-22 08:12 amENE 4.1 8.0----30.10- 80.4 79.5----
2024-07-22 08:06 amESE 4.1 7.0----30.10- 80.1 79.5----
2024-07-22 08:00 amNNE 2.9 8.0----30.10+0.03 79.7 79.5----
2024-07-22 07:54 am E 1.9 5.1----30.10- 80.1 79.5----
2024-07-22 07:48 am E 1.9 5.1----30.10- 79.9 79.5----
2024-07-22 07:42 am NE 1.0 6.0----30.09- 79.3 79.3----
2024-07-22 07:36 amNNE 4.1 8.0----30.09- 79.0 79.3----
2024-07-22 07:30 amENE 1.9 6.0----30.09- 78.8 79.5----
2024-07-22 07:24 am E 1.9 4.1----30.09- 79.0 79.3----
2024-07-22 07:18 amENE 4.1 8.9----30.09- 78.4 79.5----
2024-07-22 07:12 am N 2.9 8.9----30.09- 78.4 79.5----
2024-07-22 07:06 amENE 4.1 6.0----30.09- 78.4 79.3----
2024-07-22 07:00 am E 2.9 8.0----30.09+0.02 78.1 79.5----
2024-07-22 06:54 amENE 4.1 6.0----30.09- 77.9 79.3----
2024-07-22 06:48 am NE 4.1 7.0----30.09- 77.9 79.3----
2024-07-22 06:42 am NE 4.1 7.0----30.09- 78.1 79.5----
2024-07-22 06:36 am E 1.0 6.0----30.08- 77.7 79.5----
2024-07-22 06:30 amENE 4.1 6.0----30.08- 77.9 79.5----
2024-07-22 06:24 amENE 5.1 8.0----30.08- 77.7 79.5----
2024-07-22 06:18 amENE 1.9 5.1----30.08- 77.4 79.5----
2024-07-22 06:12 amENE 4.1 6.0----30.08- 77.5 79.5----
2024-07-22 06:06 amENE 2.9 5.1----30.08- 77.5 79.5----
2024-07-22 06:00 am NE 1.9 5.1----30.08+0.00 77.4 79.5----
2024-07-22 05:54 am E 1.9 5.1----30.08- 77.5 79.5----
2024-07-22 05:48 am NE 1.9 6.0----30.07- 77.5 79.5----
2024-07-22 05:42 amENE 2.9 5.1----30.08- 77.4 79.5----
2024-07-22 05:36 amENE 4.1 6.0----30.08- 77.4 79.5----
2024-07-22 05:30 amNNE 2.9 7.0----30.07- 77.4 79.5----
2024-07-22 05:24 amNNE 5.1 8.0----30.07- 77.5 79.5----
2024-07-22 05:18 am E 1.0 5.1----30.07- 77.5 79.5----
2024-07-22 05:12 am E 2.9 9.9----30.07- 77.5 79.5----
2024-07-22 05:06 am E 1.9 5.1----30.07- 77.4 79.5----
2024-07-22 05:00 am NE 5.1 8.0----30.07-0.01 77.5 79.5----
2024-07-22 04:54 amESE 2.9 5.1----30.07- 77.4 79.5----